[[{"header":{"parameterUnit":"m.s-1","parameterCategory":1,"la1":30.2991,"la2":30.254,"lo1":-89.0895,"lo2":-89.0444,"dy":0.0017,"dx":0.0017,"nx":28,"ny":28,"refTime":"2025-11-30T09:00:00:Z","depth":0,"parameterNumber":2,"parameterNumberName":"U-component_of_WINDS"},"data":[0,0,0,0,0,0,0,0,0,0,0,0,0,0,0,0,0,0,0,0,0,0,0,0,0,0,0,0,0,0,0,0,0,0,0,0,0,0,0,0,0,0,0,0,0,0,0,0,0,0,0,0,0,0,0,0,0,0,-3.7206,-3.7207,0,-3.728,-3.7281,-3.7282,-3.7199,-3.7196,-3.7193,-3.719,-3.7269,-3.7274,-3.7279,0,0,0,0,0,0,0,0,0,0,0,0,0,-3.6995,-3.6999,-3.7206,-3.7207,-3.7208,-3.728,-3.7281,-3.7282,-3.72,-3.7196,-3.7192,-3.7188,-3.7267,-3.7273,-3.7279,0,0,0,0,0,0,0,0,0,0,0,0,0,-3.708,-3.7,-3.7205,-3.7175,-3.7173,-3.728,-3.7281,-3.7282,-3.72,-3.7196,-3.7191,-3.7187,-3.7265,-3.7273,-3.728,-3.7421,0,0,-3.7303,-3.7307,0,0,0,0,0,0,0,0,-3.7075,-3.7087,-3.7179,-3.7177,-3.7175,-3.7225,-3.7235,-3.7329,-3.7202,-3.719,-3.719,-3.7184,-3.7259,-3.7266,-3.7291,-3.7425,-3.7428,-3.7304,-3.7309,-3.7312,-3.7314,0,0,0,0,0,0,0,-3.7069,-3.7084,-3.7235,-3.718,-3.7178,-3.7158,-3.7165,-3.7253,-3.725,-3.7191,-3.7185,-3.7195,-3.7257,-3.7284,-3.7292,-3.743,-3.7304,-3.7311,-3.7315,-3.7318,-3.7684,-3.7689,0,0,0,0,0,0,-3.7066,-3.7079,-3.7233,-3.7237,-3.7112,-3.7166,-3.7174,-3.7214,-3.7249,-3.7249,-3.7199,-3.7191,-3.7273,-3.7283,-3.7295,-3.7463,-3.7312,-3.7319,-3.7323,-3.7679,-3.7685,-3.7691,0,0,0,0,0,0,-3.7062,-3.7081,-3.723,-3.7157,-3.7174,-3.7175,-3.7221,-3.7218,-3.7245,-3.7255,-3.7254,-3.7227,-3.727,-3.7284,-3.739,-3.7464,-3.7322,-3.7329,-3.7673,-3.7681,-3.7688,-3.7801,0,0,0,0,0,0,-3.7056,-3.708,-3.7133,-3.7159,-3.7178,-3.7324,-3.7225,-3.7223,-3.7258,-3.7248,-3.7281,-3.7282,-3.7267,-3.738,-3.7398,-3.7472,-3.7335,-3.7666,-3.7676,-3.7686,-3.779,-3.7811,-3.7829,0,0,0,0,0,-3.7049,-3.7162,-3.7136,-3.7155,-3.7245,-3.7328,-3.734,-3.732,-3.7264,-3.7318,-3.7324,-3.7281,-3.7453,-3.7391,-3.7411,-3.7489,-3.7662,-3.7674,-3.7685,-3.7782,-3.7807,-3.7829,0,0,0,0,0,0,-3.7146,-3.7165,-3.7136,-3.7261,-3.7294,-3.7314,-3.7382,-3.7348,-3.7398,-3.7387,-3.736,-3.7369,-3.7482,-3.7496,-3.7426,-3.7628,-3.7548,-3.7564,-3.7615,-3.7639,-3.7658,-3.7654,-3.7341,0,0,0,0,0,-3.7182,-3.7248,-3.726,-3.7369,-3.7387,-3.7382,-3.7417,-3.7399,-3.7432,-3.7446,-3.746,-3.7495,-3.7557,-3.7598,-3.7656,-3.7791,-3.7798,-3.7854,-3.7874,-3.789,-3.7905,-3.7978,-3.8004,-3.7729,-3.7729,-3.7729,0,0,-3.7257,-3.7275,-3.7319,-3.7389,-3.7413,-3.7482,-3.7394,-3.7471,-3.7523,-3.7458,-3.756,-3.7571,-3.7608,-3.773,-3.7784,-3.7745,-3.7982,-3.7905,-3.7917,-3.7924,-3.7993,-3.8019,-3.8042,-3.7737,-3.7736,-3.7734,0,0,-3.743,-3.7449,-3.7543,-3.7567,-3.7603,-3.7599,-3.7621,-3.7647,-3.7652,-3.7753,-3.7706,-3.7767,-3.7874,-3.7903,-3.7931,-3.8114,-3.8076,-3.8133,-3.8236,-3.8308,-3.8329,-3.8348,-3.8415,-3.8439,-3.8148,-3.8148,-3.8148,0,-3.7519,-3.7621,-3.7595,-3.7676,-3.7709,-3.7652,-3.7746,-3.7772,-3.7825,-3.785,-3.7804,-3.7937,-3.7958,-3.8086,-3.8131,-3.8155,-3.8181,-3.813,-3.8328,-3.8347,-3.8364,-3.8428,-3.8453,-3.8155,-3.8154,-3.8153,-3.8153,0,-3.7729,-3.7801,-3.7872,-3.7924,-3.7964,-3.8052,-3.804,-3.8084,-3.8062,-3.8063,-3.8167,-3.8189,-3.8251,-3.8279,-3.8259,-3.8405,-3.838,-3.8332,-3.8252,-3.8398,-3.8457,-3.8481,-3.8165,-3.8162,-3.816,-3.8158,0,0,-3.7968,-3.8003,-3.803,-3.8053,-3.8088,-3.8143,-3.8228,-3.8286,-3.8326,-3.8364,-3.8436,-3.8527,-3.8482,-3.8515,-3.8497,-3.856,-3.8705,-3.8504,-3.8504,-3.8542,-3.8869,-3.8906,-3.8935,-3.8679,-3.8683,-3.8687,-3.8866,0,-3.8142,-3.8288,-3.8267,-3.8409,-3.8475,-3.8421,-3.8495,-3.8525,-3.8528,-3.8585,-3.8587,-3.8653,-3.8589,-3.8608,-3.8668,-3.8674,-3.877,-3.8661,-3.8747,-3.875,-3.8741,-3.8965,-3.9005,-3.9173,-3.8889,-3.8893,-3.8896,0,-3.8365,-3.8411,-3.8559,-3.8584,-3.8611,-3.8677,-3.873,-3.8785,-3.8818,-3.8815,-3.8851,-3.8821,-3.8907,-3.8824,-3.8942,-3.8869,-3.8902,-3.8911,-3.8917,-3.8926,-3.8833,-3.8982,-3.9226,-3.9253,-3.8931,-3.8929,-3.8926,0,-3.8526,-3.8625,-3.8726,-3.8747,-3.8778,-3.8826,-3.8842,-3.8869,-3.8906,-3.8952,-3.8976,-3.9032,-3.9063,-3.9107,-3.9093,-3.9034,-3.9216,-3.9131,-3.9217,-3.9218,-3.926,-3.9258,-3.9515,-3.9279,-3.9278,-3.9278,-3.9277,0,-3.8725,-3.8818,-3.8799,-3.8862,-3.8964,-3.8939,-3.9042,-3.905,-3.9075,-3.9139,-3.9096,-3.9157,-3.9134,-3.9195,-3.9185,-3.9285,-3.9299,-3.9301,-3.9297,-3.9306,-3.9306,-3.9329,-3.9318,-3.9284,-3.9283,-3.9282,-3.928,0,-3.8923,-3.8914,-3.9021,-3.9041,-3.9048,-3.9123,-3.914,-3.92,-3.9198,-3.9279,-3.9297,-3.9295,-3.9364,-3.9354,-3.943,-3.9424,-3.955,-3.9531,-3.9539,-3.9535,-3.9623,-3.9615,-3.9906,-3.9943,-3.968,-3.9683,-3.9685,0,-3.9051,-3.9121,-3.9149,-3.9188,-3.9206,-3.927,-3.9307,-3.9285,-3.9325,-3.9368,-3.9422,-3.9486,-3.9537,-3.9649,-3.9655,-3.9714,-3.9697,-3.9795,-3.9706,-3.9713,-3.9701,-3.9698,-3.9705,-3.9813,-3.9816,-3.9819,-3.9821,0,-3.928,-3.9272,-3.9327,-3.938,-3.9425,-3.9467,-3.9503,-3.9538,-3.9519,-3.9567,-3.9636,-3.9675,-3.9752,-3.9817,-3.9872,-3.9888,-3.9853,-3.9848,-3.9872,-3.9882,-3.9884,-3.9886,-3.9589,-3.9842,-3.984,-3.9838,-3.9837,-3.9836,-3.9449,-3.9509,-3.9538,-3.96,-3.9625,-3.966,-3.9717,-3.9722,-3.9779,-3.984,-3.9822,-3.9901,-3.9932,-4.0002,-4.0024,-4.0086,-4.005,-4.0084,-4.0093,-4.0102,-4.0113,-3.9873,-4.0095,-4.0095,-4.0094,-4.0094,-4.0093,0,-3.9677,-3.9693,-3.975,-3.9803,-3.9852,-3.9811,-3.985,-3.9895,-3.9964,-3.9995,-4.0045,-4.0125,-4.0188,-4.0198,-4.0258,-4.0305,-4.0291,-4.0322,-4.032,-4.0324,-4.0141,-4.0115,-4.0333,-4.0333,-4.0333,-4.0333,-4.0333,-4.0333,-3.9802,-3.9902,-3.9897,-4.0009,-4.0024,-4.01,-4.0126,-4.0158,-4.0183,-4.0274,-4.0325,-4.0331,-4.0355,-4.0415,-4.0471,-4.0473,-4.0498,-4.0536,-4.0532,-4.0361,-4.0337,-4.0314,-4.029,-4.0542,-4.0542,-4.071,-4.0712,-4.0713]},{"header":{"parameterUnit":"m.s-1","parameterCategory":1,"la1":30.2991,"la2":30.254,"lo1":-89.0895,"lo2":-89.0444,"dy":0.0017,"dx":0.0017,"nx":28,"ny":28,"refTime":"2025-11-30T09:00:00:Z","depth":0,"parameterNumber":3,"parameterNumberName":"V-component_of_WINDS"},"data":[0,0,0,0,0,0,0,0,0,0,0,0,0,0,0,0,0,0,0,0,0,0,0,0,0,0,0,0,0,0,0,0,0,0,0,0,0,0,0,0,0,0,0,0,0,0,0,0,0,0,0,0,0,0,0,0,0,0,-3.5755,-3.5755,0,-3.5754,-3.5754,-3.5754,-3.5706,-3.5705,-3.5704,-3.5702,-3.5702,-3.5703,-3.5704,0,0,0,0,0,0,0,0,0,0,0,0,0,-3.5713,-3.5714,-3.5755,-3.5755,-3.5755,-3.5754,-3.5754,-3.5754,-3.5706,-3.5705,-3.5703,-3.5702,-3.5701,-3.5703,-3.5704,0,0,0,0,0,0,0,0,0,0,0,0,0,-3.5724,-3.5714,-3.5755,-3.5731,-3.5729,-3.5754,-3.5754,-3.5754,-3.5707,-3.5705,-3.5703,-3.5701,-3.5701,-3.5703,-3.5704,-3.5753,0,0,-3.571,-3.5711,0,0,0,0,0,0,0,0,-3.5723,-3.5725,-3.5734,-3.5732,-3.573,-3.5728,-3.5739,-3.5754,-3.5707,-3.5715,-3.5702,-3.57,-3.5712,-3.5713,-3.5717,-3.5753,-3.5753,-3.571,-3.5711,-3.5712,-3.5712,0,0,0,0,0,0,0,-3.5722,-3.5725,-3.5755,-3.5734,-3.5732,-3.572,-3.5719,-3.5742,-3.5724,-3.5714,-3.5711,-3.5711,-3.5711,-3.5715,-3.5717,-3.5753,-3.571,-3.5711,-3.5713,-3.5713,-3.5828,-3.583,0,0,0,0,0,0,-3.5725,-3.5725,-3.5755,-3.5755,-3.5722,-3.5722,-3.5721,-3.5731,-3.5724,-3.5721,-3.5713,-3.5709,-3.5713,-3.5715,-3.5716,-3.5772,-3.5712,-3.5713,-3.5714,-3.5826,-3.5828,-3.583,0,0,0,0,0,0,-3.5724,-3.5728,-3.5755,-3.5739,-3.5741,-3.5725,-3.5736,-3.5732,-3.5736,-3.5723,-3.5719,-3.5721,-3.5712,-3.5714,-3.5744,-3.5772,-3.5714,-3.5716,-3.5823,-3.5827,-3.5829,-3.5885,0,0,0,0,0,0,-3.5723,-3.5728,-3.5747,-3.5739,-3.5742,-3.5783,-3.5737,-3.5733,-3.574,-3.5735,-3.573,-3.5727,-3.5711,-3.5742,-3.5746,-3.5773,-3.5717,-3.5821,-3.5825,-3.5828,-3.588,-3.5889,-3.5897,0,0,0,0,0,-3.5722,-3.5763,-3.5748,-3.5752,-3.5765,-3.5784,-3.5786,-3.5766,-3.5742,-3.576,-3.5751,-3.5727,-3.5768,-3.5745,-3.5749,-3.5777,-3.5819,-3.5824,-3.5828,-3.5877,-3.5888,-3.5897,0,0,0,0,0,0,-3.5774,-3.5762,-3.5745,-3.5785,-3.5786,-3.5776,-3.5799,-3.5779,-3.5787,-3.5782,-3.5757,-3.5756,-3.579,-3.5787,-3.5762,-3.5824,-3.5789,-3.5795,-3.5825,-3.5835,-3.5843,-3.5843,-3.5719,0,0,0,0,0,-3.5791,-3.5808,-3.5795,-3.5831,-3.5833,-3.5816,-3.5824,-3.5808,-3.5809,-3.5809,-3.5802,-3.5803,-3.5816,-3.5825,-3.5836,-3.5879,-3.5877,-3.5901,-3.5909,-3.5916,-3.5921,-3.5943,-3.5953,-3.5845,-3.5845,-3.5845,0,0,-3.5824,-3.5819,-3.5832,-3.5842,-3.5841,-3.5859,-3.5817,-3.5837,-3.585,-3.5812,-3.584,-3.5835,-3.5834,-3.5871,-3.5887,-3.5869,-3.595,-3.5922,-3.5927,-3.5928,-3.5948,-3.5958,-3.5968,-3.5848,-3.5848,-3.5847,0,0,-3.5894,-3.5893,-3.5922,-3.5922,-3.5921,-3.5909,-3.5916,-3.5909,-3.5904,-3.5932,-3.5903,-3.5918,-3.5941,-3.5941,-3.5945,-3.6014,-3.5991,-3.6018,-3.6061,-3.6083,-3.6091,-3.6098,-3.6123,-3.6132,-3.6023,-3.6023,-3.6023,0,-3.5937,-3.5962,-3.594,-3.5962,-3.5967,-3.5933,-3.5962,-3.5963,-3.5966,-3.597,-3.595,-3.5977,-3.5975,-3.601,-3.6027,-3.6031,-3.6038,-3.6019,-3.6092,-3.6099,-3.6105,-3.6128,-3.6137,-3.6026,-3.6026,-3.6026,-3.6025,0,-3.6013,-3.6032,-3.6055,-3.6058,-3.6066,-3.6092,-3.6073,-3.6083,-3.6067,-3.6057,-3.6085,-3.608,-3.6089,-3.6097,-3.6081,-3.613,-3.6119,-3.6096,-3.6061,-3.6119,-3.614,-3.6149,-3.6031,-3.603,-3.6029,-3.6028,0,0,-3.6118,-3.6107,-3.6116,-3.6117,-3.6113,-3.6126,-3.615,-3.6158,-3.6167,-3.617,-3.6189,-3.6209,-3.6187,-3.6191,-3.6175,-3.6193,-3.6248,-3.6168,-3.6167,-3.6182,-3.6301,-3.6318,-3.6329,-3.6233,-3.6234,-3.6235,-3.6301,0,-3.6186,-3.6225,-3.6205,-3.6248,-3.6263,-3.623,-3.6251,-3.625,-3.6241,-3.6253,-3.6243,-3.6258,-3.6228,-3.623,-3.6247,-3.6237,-3.6271,-3.6232,-3.625,-3.6251,-3.6251,-3.634,-3.6359,-3.642,-3.6309,-3.631,-3.6311,0,-3.627,-3.6276,-3.632,-3.6311,-3.6317,-3.6336,-3.6342,-3.6354,-3.6352,-3.6344,-3.6348,-3.6327,-3.6349,-3.6314,-3.6344,-3.6318,-3.6324,-3.632,-3.6322,-3.6323,-3.6285,-3.6343,-3.6439,-3.6449,-3.6324,-3.6323,-3.6322,0,-3.6341,-3.636,-3.6388,-3.639,-3.6381,-3.6394,-3.6391,-3.6388,-3.6394,-3.6399,-3.6402,-3.641,-3.6414,-3.6421,-3.6402,-3.6379,-3.6435,-3.6398,-3.6428,-3.6429,-3.6442,-3.6441,-3.6541,-3.6446,-3.6446,-3.6446,-3.6445,0,-3.6419,-3.6447,-3.642,-3.6437,-3.6467,-3.6443,-3.6474,-3.6467,-3.6464,-3.6479,-3.6451,-3.6466,-3.6441,-3.6453,-3.6439,-3.6466,-3.6468,-3.6462,-3.6458,-3.6465,-3.6465,-3.6468,-3.6463,-3.6448,-3.6448,-3.6447,-3.6447,0,-3.6504,-3.6487,-3.6515,-3.6504,-3.6502,-3.6525,-3.6515,-3.653,-3.6519,-3.6538,-3.6542,-3.6524,-3.6537,-3.6519,-3.6531,-3.6521,-3.6557,-3.6547,-3.6558,-3.6555,-3.6586,-3.6583,-3.6691,-3.6704,-3.6601,-3.6602,-3.6603,0,-3.6555,-3.6575,-3.6566,-3.6574,-3.6572,-3.6586,-3.6591,-3.6568,-3.6575,-3.6574,-3.659,-3.66,-3.6607,-3.663,-3.6618,-3.6626,-3.6616,-3.6652,-3.6617,-3.6622,-3.6616,-3.6615,-3.6617,-3.666,-3.6661,-3.6662,-3.6663,0,-3.6647,-3.6637,-3.6646,-3.6652,-3.666,-3.6664,-3.6665,-3.6673,-3.6649,-3.6659,-3.6671,-3.6677,-3.6688,-3.6698,-3.6703,-3.67,-3.6678,-3.6674,-3.6682,-3.6689,-3.6694,-3.6692,-3.6578,-3.6672,-3.6671,-3.6671,-3.667,-3.667,-3.6716,-3.6732,-3.6728,-3.6739,-3.6737,-3.6739,-3.6753,-3.6743,-3.6753,-3.676,-3.6745,-3.6761,-3.6758,-3.6762,-3.6761,-3.6773,-3.6757,-3.6768,-3.6771,-3.6774,-3.6779,-3.6692,-3.6774,-3.6774,-3.6774,-3.6773,-3.6773,0,-3.6806,-3.6801,-3.6811,-3.6814,-3.6823,-3.68,-3.68,-3.6809,-3.6823,-3.6822,-3.6829,-3.6843,-3.6853,-3.6842,-3.6849,-3.6861,-3.6851,-3.6864,-3.6863,-3.6863,-3.6793,-3.6785,-3.6872,-3.6872,-3.6872,-3.6872,-3.6872,-3.6872,-3.6854,-3.688,-3.6869,-3.6894,-3.6889,-3.6904,-3.6906,-3.6908,-3.6906,-3.6923,-3.6931,-3.6923,-3.6917,-3.6924,-3.6932,-3.6929,-3.6933,-3.6949,-3.6942,-3.6877,-3.6868,-3.6858,-3.6851,-3.6951,-3.6951,-3.7011,-3.7012,-3.7012]}]]